Location: Newark
(43.0000°N, 1.6781°W)
Time: 16:54:19
(UTC+00:00)

Transit 2A Rocket - Pass Details

Date: 26 April 2021
Orbit: 594 x 909 km, 66.7° (Epoch: 10 May)

Event Time Altitude Azimuth Distance (km) Brightness Sun altitude
Rises 21:58:59 0° 333° (NNW) 2,893 9.3 -26.3°
Reaches altitude 10° 22:01:16 10° 340° (NNW) 2,014 8.1 -26.6°
Enters shadow 22:05:07 44° 33° (NNE) 908 5.4 -27.0°
